Location: Newark
(13.6797°N, 8.5297°E)
Time: 14:54:42
(UTC+00:00)

Altair - Pass Details

Date: 27 January 2020
Orbit: 1502 x 1682 km, 47.2° (Epoch: 24 February)

Event Time Altitude Azimuth Distance (km) Brightness Sun altitude
Rises 02:43:44 0° 172° (S) 4,716 10.3 -45.4°
Reaches altitude 10° 02:51:55 10° 129° (SE) 3,797 10.1 -43.4°
Maximum altitude 02:52:25 10° 126° (SE) 3,797 10.1 -43.3°
Drops below altitude 10° 02:52:56 10° 123° (ESE) 3,805 10.1 -43.2°
Sets 03:01:13 0° 82° (E) 4,854 10.9 -41.2°
